Location: Bydgoszcz
(53.1640°N, 17.9142°E)
Time: 17:28:02
(UTC+02:00)

PCSat - Pass Details

Date: 23 April 2024
Orbit: 783 x 792 km, 67.1° (Epoch: 18 May)

Event Time Altitude Azimuth Distance (km) Brightness Sun altitude
Rises 04:07:27 0° 319° (NW) 3,302 12.8 -11.5°
Reaches altitude 10° 04:09:53 10° 318° (NW) 2,369 12.0 -11.2°
Maximum altitude 04:15:18 75° 234° (SW) 826 9.5 -10.6°
Drops below altitude 10° 04:20:42 10° 151° (SSE) 2,355 12.0 -9.9°
Sets 04:23:06 0° 149° (SSE) 3,280 12.7 -9.6°
